Regional Weather Roundup
Issued by NWS

Current Version | Previous Version | Text Only | Print | Product List | Glossary Off
Versions: 1 2 3 4 5 6 7 8 9 10 11 12 13 14 15 16 17 18 19 20 21 22 23 24 25 26 27 28 29 30 31 32 33 34 35 36 37 38 39 40 41 42 43 44 45 46 47 48 49 50

000
ASUS44 KJAN 211210
RWRMS

MISSISSIPPI HOURLY WEATHER ROUNDUP
NATIONAL WEATHER SERVICE JACKSON MS
600 AM CST TUE NOV 21 2017

NOTE: "FAIR: INDICATES FEW OR NO CLOUDS BELOW 12,000 FEET WITH NO
SIGNIFICANT WEATHER AND/OR OBSTRUCTIONS TO VISIBILITY.

MSZ001>002-007>008-010>013-018>021-025>028-034>036-211300-
NORTHWEST MISSISSIPPI

CITY           SKY/WX    TMP DP  RH WIND       PRES   REMARKS
BATESVILLE     FAIR      29  28  95 CALM      30.05R
CLARKSDALE       N/A     36  36 100 S5        30.03R WCI  32
CLEVELAND      FAIR      39  34  81 S6        30.02R WCI  35
GREENWOOD      PTCLDY    34  31  88 CALM      30.03R
6HR MIN TEMP:  32; 6HR MAX TEMP:  36;

GREENVILLE     CLOUDY    36  31  82 S6        30.02R WCI  31
6HR MIN TEMP:  34; 6HR MAX TEMP:  38;

OXFORD         FAIR      34  30  86 VRB3      30.05S
TUNICA           N/A    N/A N/A N/A S6        30.04R
WINONA         FAIR      29  29 100 CALM      30.04R
$$

MSZ003>006-009-014>017-022>024-029>033-037>039-211300-
NORTHEAST MISSISSIPPI

CITY           SKY/WX    TMP DP  RH WIND       PRES   REMARKS
ABERDEEN       FAIR      27  27 100 CALM      30.08R
COLUMBUS AFB   CLEAR     28  26  93 CALM      30.06S
6HR MIN TEMP:  27; 6HR MAX TEMP:  32;

CORINTH        FAIR      30  27  86 S5        30.05F WCI  25
GOLDN TRIANGLE CLEAR     33  30  88 SE3       30.07S
STARKVILLE     FAIR      32  32 100 CALM      30.06S
TUPELO         CLOUDY    32  27  81 CALM      30.05S
6HR MIN TEMP:  32; 6HR MAX TEMP:  38;

$$

MSZ040-058-211300-
CENTRAL MISSISSIPPI

CITY           SKY/WX    TMP DP  RH WIND       PRES   REMARKS
JACKSON INTL   CLEAR     35  32  88 S3        30.04R
6HR MIN TEMP:  33; 6HR MAX TEMP:  38;

JACKSON HAWKNS CLEAR     34  34 100 CALM      30.04R
6HR MIN TEMP:  33; 6HR MAX TEMP:  37;

MADISON        FAIR      32  32 100 CALM      30.03S FOG
MERIDIAN KEY   CLEAR     32  31  96 CALM      30.06S
6HR MIN TEMP:  31; 6HR MAX TEMP:  37;

MERIDIAN NAS   PTCLDY    31  28  89 E3        30.07R
6HR MIN TEMP:  31; 6HR MAX TEMP:  37;

RAYMOND        FOG       32  32 100 CALM      30.04R VSB 1/2
VICKSBURG VKS  MOSUNNY   37  34  87 CALM      30.05R
$$

MSZ059>079-211300-
SOUTH MISSISSIPPI

CITY           SKY/WX    TMP DP  RH WIND       PRES   REMARKS
COLUMBIA       FAIR      34  32  93 CALM      30.07S
HATTIESBURG    CLEAR     36  36 100 CALM      30.06R
6HR MIN TEMP:  36; 6HR MAX TEMP:  42;

LAUREL         FAIR      33  33 100 CALM      30.05S
MCCOMB         CLEAR     37  33  85 CALM      30.02S
6HR MIN TEMP:  36; 6HR MAX TEMP:  42;

NATCHEZ        CLEAR     40  36  86 S6        30.02S
6HR MIN TEMP:  37; 6HR MAX TEMP:  41;

PINE BELT      CLEAR     35  34  96 CALM      30.05S
6HR MIN TEMP:  35; 6HR MAX TEMP:  41;

$$

MSZ080>082-211300-
COASTAL MISSISSIPPI

CITY           SKY/WX    TMP DP  RH WIND       PRES   REMARKS
BILOXI         CLOUDY    46  41  82 NE7       30.03F
6HR MIN TEMP:  45; 6HR MAX TEMP:  48;

PASCAGOULA     PTCLDY    42  39  89 CALM      30.05F
6HR MIN TEMP:  39; 6HR MAX TEMP:  44;

GULFPORT       CLEAR     46  40  79 NE3       30.03F
6HR MIN TEMP:  44; 6HR MAX TEMP:  49;

$$

LAZ007>009-015>016-023>026-211300-
NORTHEAST LOUISIANA

CITY           SKY/WX    TMP DP  RH WIND       PRES   REMARKS
BASTROP        FAIR      37  36  97 CALM      30.03R
TALLULAH/VBURG CLOUDY    33  33 100 CALM      30.03S
6HR MIN TEMP:  32; 6HR MAX TEMP:  37;

VIDALIA          N/A    N/A N/A N/A MISG      30.02R
$$



USA.gov is the U.S. government's official web portal to all federal, state and local government web resources and services.